Hourly Weather Bolshoe Dumchino

Today, 1 August, Sunday

Time Temperature Precipitation Wind Pressure Humidity
00:00 +20°C° 0 mm 1 mps 738 mmHg 70%
01:00 +20°C° 0 mm 1 mps 738 mmHg 71%
02:00 +20°C° 0 mm 1 mps 739 mmHg 72%
03:00 +20°C° 0 mm 1 mps 739 mmHg 74%
04:00 +19°C° 0 mm 2 mps 738 mmHg 75%
05:00 +19°C° 0 mm 2 mps 738 mmHg 77%
06:00 +21°C° 0 mm 3 mps 739 mmHg 71%
07:00 +24°C° 0 mm 3 mps 739 mmHg 65%
08:00 +26°C° 0 mm 3 mps 739 mmHg 59%
09:00 +27°C° 0 mm 4 mps 739 mmHg 54%
10:00 +29°C° 0 mm 4 mps 739 mmHg 49%
11:00 +30°C° 0 mm 4 mps 739 mmHg 43%
12:00 +32°C° 0 mm 4 mps 739 mmHg 41%
13:00 +32°C° 0 mm 5 mps 739 mmHg 39%
14:00 +32°C° 0 mm 5 mps 739 mmHg 37%
15:00 +32°C° 0 mm 4 mps 738 mmHg 40%
16:00 +31°C° 0 mm 3 mps 738 mmHg 44%
17:00 +30°C° 0 mm 3 mps 738 mmHg 47%
18:00 +28°C° 0 mm 3 mps 738 mmHg 50%
19:00 +27°C° 0 mm 3 mps 738 mmHg 53%
20:00 +25°C° 0 mm 3 mps 738 mmHg 56%
21:00 +24°C° 0 mm 3 mps 738 mmHg 56%
22:00 +24°C° 0 mm 3 mps 738 mmHg 57%
23:00 +22°C° 0 mm 3 mps 738 mmHg 58%

Tomorrow, 2 August, Monday

Time Temperature Precipitation Wind Pressure Humidity
00:00 +22°C° 0 mm 3 mps 738 mmHg 59%
01:00 +21°C° 0 mm 3 mps 738 mmHg 61%
02:00 +21°C° 0 mm 3 mps 737 mmHg 62%
03:00 +21°C° 0.1 mm 3 mps 737 mmHg 66%
04:00 +21°C° 0.1 mm 3 mps 737 mmHg 69%
05:00 +20°C° 0.1 mm 2 mps 737 mmHg 72%
06:00 +24°C° 0 mm 3 mps 737 mmHg 66%
07:00 +26°C° 0 mm 3 mps 737 mmHg 59%
08:00 +28°C° 0 mm 4 mps 737 mmHg 53%
09:00 +30°C° 0 mm 5 mps 737 mmHg 47%
10:00 +32°C° 0 mm 6 mps 736 mmHg 41%
11:00 +34°C° 0 mm 7 mps 736 mmHg 35%
12:00 +34°C° 0 mm 7 mps 736 mmHg 35%
13:00 +34°C° 0 mm 7 mps 736 mmHg 35%
14:00 +35°C° 0 mm 7 mps 735 mmHg 36%
15:00 +34°C° 0 mm 6 mps 735 mmHg 37%
16:00 +34°C° 0 mm 6 mps 734 mmHg 38%
17:00 +34°C° 0 mm 5 mps 733 mmHg 39%
18:00 +29°C° 1 mm 5 mps 734 mmHg 56%
19:00 +24°C° 1 mm 6 mps 735 mmHg 72%
20:00 +20°C° 1 mm 7 mps 735 mmHg 88%
21:00 +20°C° 0.1 mm 6 mps 735 mmHg 87%
22:00 +20°C° 0.1 mm 5 mps 735 mmHg 86%
23:00 +20°C° 0.1 mm 5 mps 734 mmHg 85%

Day after tomorrow, 3 August, Tuesday

Time Temperature Precipitation Wind Pressure Humidity
00:00 +20°C° 0.2 mm 5 mps 734 mmHg 88%
01:00 +19°C° 0.2 mm 6 mps 735 mmHg 91%
02:00 +19°C° 0.2 mm 6 mps 735 mmHg 94%
03:00 +19°C° 0.2 mm 6 mps 735 mmHg 94%
04:00 +19°C° 0.2 mm 5 mps 735 mmHg 94%
05:00 +19°C° 0.2 mm 5 mps 735 mmHg 94%
06:00 +19°C° 0 mm 5 mps 736 mmHg 89%
07:00 +19°C° 0 mm 5 mps 736 mmHg 84%
08:00 +20°C° 0 mm 5 mps 737 mmHg 79%
09:00 +20°C° 0 mm 5 mps 737 mmHg 74%
10:00 +21°C° 0 mm 5 mps 738 mmHg 70%
11:00 +21°C° 0 mm 5 mps 738 mmHg 65%
12:00 +22°C° 0.1 mm 5 mps 738 mmHg 62%
13:00 +22°C° 0.1 mm 5 mps 738 mmHg 60%
14:00 +22°C° 0.1 mm 5 mps 738 mmHg 57%
15:00 +22°C° 0.1 mm 5 mps 739 mmHg 59%
16:00 +22°C° 0.1 mm 5 mps 739 mmHg 61%
17:00 +21°C° 0.1 mm 5 mps 739 mmHg 63%
18:00 +20°C° 0.1 mm 4 mps 739 mmHg 68%
19:00 +19°C° 0.1 mm 3 mps 740 mmHg 73%
20:00 +18°C° 0.1 mm 2 mps 740 mmHg 79%
21:00 +17°C° 0 mm 2 mps 740 mmHg 79%
22:00 +17°C° 0 mm 2 mps 740 mmHg 79%
23:00 +16°C° 0 mm 2 mps 740 mmHg 80%

4 August, Wednesday

Time Temperature Precipitation Wind Pressure Humidity
00:00 +16°C° 0 mm 2 mps 741 mmHg 78%
01:00 +16°C° 0 mm 2 mps 741 mmHg 76%
02:00 +16°C° 0 mm 2 mps 741 mmHg 75%
03:00 +16°C° 0 mm 2 mps 741 mmHg 75%
04:00 +15°C° 0 mm 2 mps 741 mmHg 76%
05:00 +15°C° 0 mm 2 mps 741 mmHg 76%
06:00 +17°C° 0 mm 2 mps 742 mmHg 69%
07:00 +19°C° 0 mm 2 mps 742 mmHg 62%
08:00 +20°C° 0 mm 2 mps 742 mmHg 55%
09:00 +22°C° 0 mm 3 mps 742 mmHg 49%
10:00 +24°C° 0 mm 3 mps 742 mmHg 43%
11:00 +25°C° 0 mm 4 mps 742 mmHg 37%
12:00 +25°C° 0 mm 3 mps 742 mmHg 39%
13:00 +25°C° 0 mm 3 mps 742 mmHg 40%
14:00 +25°C° 0 mm 3 mps 742 mmHg 42%
15:00 +24°C° 0 mm 3 mps 742 mmHg 44%
16:00 +24°C° 0 mm 3 mps 742 mmHg 47%
17:00 +24°C° 0 mm 2 mps 742 mmHg 49%
18:00 +21°C° 0 mm 2 mps 743 mmHg 54%
19:00 +20°C° 0 mm 2 mps 743 mmHg 58%
20:00 +18°C° 0 mm 2 mps 743 mmHg 63%
21:00 +18°C° 0 mm 1 mps 743 mmHg 66%
22:00 +18°C° 0 mm 1 mps 743 mmHg 69%
23:00 +16°C° 0 mm 1 mps 743 mmHg 71%

5 August, Thursday

Time Temperature Precipitation Wind Pressure Humidity
00:00 +16°C° 0 mm 1 mps 743 mmHg 74%
01:00 +15°C° 0 mm 1 mps 743 mmHg 77%
02:00 +14°C° 0 mm 0 mps 743 mmHg 80%
03:00 +14°C° 0 mm 0 mps 743 mmHg 79%
04:00 +14°C° 0 mm 0 mps 743 mmHg 79%
05:00 +15°C° 0 mm 0 mps 743 mmHg 78%
06:00 +16°C° 0 mm 0 mps 743 mmHg 72%
07:00 +20°C° 0 mm 1 mps 743 mmHg 65%
08:00 +22°C° 0 mm 1 mps 743 mmHg 59%
09:00 +23°C° 0 mm 1 mps 743 mmHg 55%
10:00 +24°C° 0 mm 1 mps 743 mmHg 51%
11:00 +24°C° 0 mm 1 mps 743 mmHg 48%
12:00 +23°C° 0 mm 2 mps 743 mmHg 54%
13:00 +21°C° 0 mm 3 mps 743 mmHg 61%
14:00 +20°C° 0 mm 4 mps 743 mmHg 68%
15:00 +20°C° 0 mm 3 mps 742 mmHg 66%
16:00 +21°C° 0 mm 3 mps 742 mmHg 64%
17:00 +21°C° 0 mm 3 mps 742 mmHg 61%
18:00 +20°C° 0 mm 3 mps 742 mmHg 62%
19:00 +20°C° 0 mm 3 mps 741 mmHg 63%
20:00 +19°C° 0 mm 3 mps 741 mmHg 64%
21:00 +19°C° 0 mm 3 mps 741 mmHg 65%
22:00 +18°C° 0 mm 3 mps 741 mmHg 67%
23:00 +18°C° 0 mm 2 mps 741 mmHg 69%

6 August, Friday

Time Temperature Precipitation Wind Pressure Humidity
00:00 +18°C° 0 mm 3 mps 740 mmHg 66%
01:00 +18°C° 0 mm 3 mps 740 mmHg 64%
02:00 +19°C° 0 mm 3 mps 740 mmHg 61%
03:00 +18°C° 0 mm 3 mps 740 mmHg 61%
04:00 +18°C° 0 mm 3 mps 740 mmHg 61%
05:00 +18°C° 0 mm 2 mps 740 mmHg 61%
06:00 +20°C° 0 mm 3 mps 740 mmHg 58%
07:00 +21°C° 0 mm 3 mps 740 mmHg 55%
08:00 +24°C° 0 mm 3 mps 740 mmHg 52%
09:00 +26°C° 0 mm 4 mps 740 mmHg 47%
10:00 +28°C° 0 mm 4 mps 740 mmHg 43%
11:00 +30°C° 0 mm 5 mps 739 mmHg 38%
12:00 +32°C° 0 mm 5 mps 739 mmHg 35%
13:00 +32°C° 0 mm 5 mps 739 mmHg 32%
14:00 +33°C° 0 mm 6 mps 739 mmHg 30%
15:00 +33°C° 0 mm 5 mps 739 mmHg 32%
16:00 +32°C° 0 mm 4 mps 738 mmHg 34%
17:00 +31°C° 0 mm 3 mps 738 mmHg 36%
18:00 +29°C° 0 mm 3 mps 738 mmHg 39%
19:00 +26°C° 0 mm 3 mps 738 mmHg 42%
20:00 +24°C° 0 mm 3 mps 738 mmHg 45%
21:00 +23°C° 0 mm 4 mps 738 mmHg 45%
22:00 +22°C° 0 mm 4 mps 738 mmHg 44%
23:00 +22°C° 0 mm 4 mps 738 mmHg 44%
Show more

We Need Your Consent

Meteoprog and our Service Providers may store and access personal data such as cookies, device identifiers or other similar technologies on your device and process such data to personalise content and ads, as well as provide social media features and to analyse the traffic.

  • Store and/or access information on your device

    Cookies, device identifiers or other information can be stored or accessed on your device for the purposes indicated above.

  • Personalised ads and content, ad and content measurement, audience insights, and products development

    Ads and content can be personalised based on a profile. More data can be added to better personalise ads and content. Ad and content performance can be measured. Insights about the audience who saw the ads and content can be derived. Such data can be used to develop or improve user’s experience, systems and software.

By clicking ‘I Agree’ you will allow the use of indicated cookies, device identifiers, web beacons or other similar technologies. Your settings can be changed in the browser on your device.

For certain purposes, legitimate interests may be relied on, rather than consent. You can read more about this in our Privacy and Cookie Policy.